Weather History for Valparaiso, FL

Change the Weather History Date:

Monday, September 9, 2013

  Actual Average Record
Temperature  
Mean Temperature 81 °F -  
Max Temperature 92 °F 89 °F 96 °F (1989)
Min Temperature 71 °F 68 °F 56 °F (1950)
Cooling Degree Days 16    
Growing Degree Days 31 (Base 50)    
Moisture  
Dew Point 70 °F    
Average Humidity 68    
Maximum Humidity 91    
Minimum Humidity 42    
Precipitation  
Precipitation 0.00 in - - ()
Sea Level Pressure  
Sea Level Pressure 30.03 in    
Wind  
Wind Speed 3 mph (SSW)    
Max Wind Speed 10 mph    
Max Gust Speed -    
Visibility 10 miles    
Events      
Averages and records for this station are not official NWS values.
T = Trace of Precipitation, MM = Missing Value Source: NWS Daily Summary

Daily Weather History Graph

Daily Weather History Graph

Search for Another Location

Airport:

Trip Planner

Search our weather history database for the weather conditions in past years. The results will help you decide how hot, cold, wet, or windy it might be!

Date:

Astronomy

Sep. 09, 2013 Rise Set
Actual Time 6:27 AM CDT 6:58 PM CDT
Civil Twilight 6:03 AM CDT 7:22 PM CDT
Nautical Twilight 5:34 AM CDT 7:51 PM CDT
Astronomical Twilight 5:05 AM CDT 8:20 PM CDT
Moon 10:27 AM CDT (9/9) 9:37 PM CDT (9/9)
Length of Visible Light 13h 19m
Length of Day
12h 31m
Waxing Crescent, 19% of the Moon is Illuminated
Sep 9
Waxing Crescent
Sep 12
First Quarter
Sep 19
Full
Sep 26
Last Quarter
Oct 4
New

Hourly Weather History & Observations

Time (CDT) Temp. Heat Index Dew Point Humidity Pressure Visibility Wind Dir Wind Speed Gust Speed Precip Events Conditions
12:55 AM 74.5 °F - 69.3 °F 84% 30.00 in 10.0 mi Calm Calm - N/A   Clear
1:55 AM 74.8 °F - 68.5 °F 81% 30.00 in 10.0 mi SSW 3.5 mph - N/A   Clear
2:55 AM 72.5 °F - 68.5 °F 87% 29.99 in 10.0 mi Calm Calm - N/A   Clear
3:55 AM 71.4 °F - 67.8 °F 88% 30.00 in 10.0 mi Calm Calm - N/A   Clear
4:55 AM 72.1 °F - 68.2 °F 87% 30.01 in 10.0 mi Calm Calm - N/A   Clear
5:55 AM 71.4 °F - 68.7 °F 91% 30.03 in 10.0 mi WNW 3.5 mph - N/A   Clear
6:55 AM 72.0 °F - 69.3 °F 91% 30.04 in 10.0 mi Calm Calm - N/A   Clear
7:55 AM 76.6 °F - 71.6 °F 84% 30.05 in 10.0 mi Calm Calm - N/A   Clear
8:55 AM 81.5 °F 86.3 °F 72.3 °F 74% 30.04 in 10.0 mi NNE 5.8 mph - N/A   Clear
9:55 AM 86.0 °F 91.8 °F 71.6 °F 62% 30.06 in 10.0 mi NNE 4.6 mph - N/A   Clear
10:55 AM 88.9 °F 93.4 °F 69.1 °F 52% 30.06 in 10.0 mi ESE 4.6 mph - N/A   Partly Cloudy
11:55 AM 91.4 °F 96.3 °F 69.1 °F 48% 30.05 in 10.0 mi SSE 8.1 mph - N/A   Partly Cloudy
12:59 PM 91.6 °F 93.9 °F 65.8 °F 42% 30.05 in 10.0 mi SE 9.2 mph - N/A   Partly Cloudy
1:56 PM 91.6 °F 95.7 °F 68.2 °F 46% 30.03 in 10.0 mi SSW 8.1 mph - N/A   Partly Cloudy
2:55 PM 90.7 °F 95.0 °F 68.7 °F 48% 30.02 in 10.0 mi South 10.4 mph - N/A   Scattered Clouds
3:55 PM 90.0 °F 95.0 °F 69.4 °F 51% 30.01 in 10.0 mi SSW 8.1 mph - N/A   Partly Cloudy
4:55 PM 89.1 °F 94.1 °F 69.8 °F 53% 30.01 in 10.0 mi SSW 6.9 mph - N/A   Partly Cloudy
5:55 PM 87.1 °F 91.6 °F 69.8 °F 56% 30.02 in 10.0 mi SSW 9.2 mph - N/A   Partly Cloudy
6:55 PM 85.5 °F 90.1 °F 70.3 °F 60% 30.02 in 10.0 mi SW 4.6 mph - N/A   Scattered Clouds
7:55 PM 84.2 °F 88.4 °F 70.0 °F 62% 30.04 in 10.0 mi SW 2.3 mph - N/A   Mostly Cloudy
8:55 PM 82.4 °F 86.7 °F 70.7 °F 68% 30.06 in 10.0 mi NW 3.5 mph - N/A   Scattered Clouds
9:55 PM 82.4 °F 86.7 °F 71.1 °F 68% 30.06 in 10.0 mi Calm Calm - N/A   Mostly Cloudy
10:55 PM 80.8 °F 84.6 °F 71.1 °F 72% 30.08 in 10.0 mi NNE 4.6 mph - N/A   Mostly Cloudy
11:55 PM 77.9 °F - 70.7 °F 78% 30.08 in 10.0 mi NNW 3.5 mph - N/A   Mostly Cloudy